• In Deutschland
  • Länderverzeichnis
  • Für 7 Tage
  • Wassertemperatur
  • Satellitenkarten
  • Wetterkarte
  • Widgets
  • user-avatar
    Anmelden

    Stündliche Wetter Nettetal

    Heute, 18 Oktober, Mittwoch

    Zeit Temperatur Niederschläge Wind Luftdruck Luftfeuchtigkeit
    00:00 +14°C° 0 mm 1 m/S 758 mmHg 81%
    01:00 +14°C° 0 mm 1 m/S 757 mmHg 82%
    02:00 +14°C° 0 mm 1 m/S 757 mmHg 83%
    03:00 +13°C° 0 mm 2 m/S 756 mmHg 85%
    04:00 +13°C° 0 mm 2 m/S 756 mmHg 85%
    05:00 +13°C° 0 mm 2 m/S 756 mmHg 86%
    06:00 +12°C° 0 mm 1 m/S 756 mmHg 86%
    07:00 +14°C° 0 mm 2 m/S 756 mmHg 80%
    08:00 +15°C° 0 mm 2 m/S 756 mmHg 74%
    09:00 +17°C° 0 mm 2 m/S 756 mmHg 68%
    10:00 +18°C° 0 mm 2 m/S 755 mmHg 64%
    11:00 +19°C° 0 mm 2 m/S 755 mmHg 60%
    12:00 +20°C° 0 mm 2 m/S 755 mmHg 55%
    13:00 +21°C° 0 mm 2 m/S 755 mmHg 57%
    14:00 +22°C° 0 mm 1 m/S 754 mmHg 59%
    15:00 +22°C° 0 mm 1 m/S 754 mmHg 61%
    16:00 +20°C° 0 mm 1 m/S 754 mmHg 66%
    17:00 +19°C° 0 mm 1 m/S 754 mmHg 72%
    18:00 +18°C° 0 mm 1 m/S 754 mmHg 77%
    19:00 +16°C° 0 mm 1 m/S 754 mmHg 79%
    20:00 +16°C° 0 mm 2 m/S 755 mmHg 81%
    21:00 +16°C° 0 mm 2 m/S 755 mmHg 83%
    22:00 +15°C° 0 mm 2 m/S 755 mmHg 83%
    23:00 +15°C° 0 mm 2 m/S 755 mmHg 84%

    Morgen, 19 Oktober, Donnerstag

    Zeit Temperatur Niederschläge Wind Luftdruck Luftfeuchtigkeit
    00:00 +15°C° 0 mm 2 m/S 755 mmHg 85%
    01:00 +14°C° 0 mm 2 m/S 754 mmHg 85%
    02:00 +14°C° 0 mm 2 m/S 754 mmHg 86%
    03:00 +14°C° 0 mm 2 m/S 754 mmHg 86%
    04:00 +13°C° 0 mm 2 m/S 754 mmHg 86%
    05:00 +13°C° 0 mm 2 m/S 754 mmHg 86%
    06:00 +13°C° 0 mm 2 m/S 754 mmHg 87%
    07:00 +14°C° 0 mm 2 m/S 754 mmHg 80%
    08:00 +16°C° 0 mm 3 m/S 754 mmHg 74%
    09:00 +17°C° 0 mm 3 m/S 754 mmHg 68%
    10:00 +19°C° 0 mm 3 m/S 753 mmHg 63%
    11:00 +20°C° 0 mm 4 m/S 753 mmHg 59%
    12:00 +22°C° 0 mm 4 m/S 753 mmHg 54%
    13:00 +22°C° 0 mm 4 m/S 753 mmHg 55%
    14:00 +22°C° 0 mm 4 m/S 752 mmHg 56%
    15:00 +22°C° 0 mm 4 m/S 752 mmHg 58%
    16:00 +21°C° 0 mm 4 m/S 752 mmHg 60%
    17:00 +19°C° 0 mm 4 m/S 752 mmHg 62%
    18:00 +18°C° 0 mm 4 m/S 752 mmHg 64%
    19:00 +18°C° 0 mm 4 m/S 752 mmHg 64%
    20:00 +18°C° 0 mm 4 m/S 753 mmHg 64%
    21:00 +17°C° 0 mm 4 m/S 753 mmHg 64%
    22:00 +17°C° 0 mm 4 m/S 753 mmHg 66%
    23:00 +17°C° 0 mm 3 m/S 753 mmHg 68%

    übermorgen, 20 Oktober, Freitag

    Zeit Temperatur Niederschläge Wind Luftdruck Luftfeuchtigkeit
    00:00 +16°C° 0 mm 3 m/S 753 mmHg 70%
    01:00 +16°C° 0,1 mm 3 m/S 753 mmHg 70%
    02:00 +16°C° 0,1 mm 3 m/S 753 mmHg 71%
    03:00 +16°C° 0,1 mm 3 m/S 753 mmHg 71%
    04:00 +16°C° 0,3 mm 3 m/S 753 mmHg 72%
    05:00 +15°C° 0,3 mm 4 m/S 753 mmHg 73%
    06:00 +15°C° 0,3 mm 4 m/S 753 mmHg 74%
    07:00 +15°C° 1,2 mm 4 m/S 753 mmHg 76%
    08:00 +15°C° 1,2 mm 5 m/S 753 mmHg 78%
    09:00 +15°C° 1,2 mm 5 m/S 753 mmHg 81%
    10:00 +15°C° 0,8 mm 5 m/S 753 mmHg 80%
    11:00 +15°C° 0,8 mm 5 m/S 753 mmHg 79%
    12:00 +16°C° 0,8 mm 6 m/S 753 mmHg 78%
    13:00 +16°C° 0,3 mm 5 m/S 753 mmHg 78%
    14:00 +16°C° 0,3 mm 5 m/S 753 mmHg 77%
    15:00 +16°C° 0,3 mm 5 m/S 753 mmHg 77%
    16:00 +15°C° 0,1 mm 4 m/S 753 mmHg 79%
    17:00 +14°C° 0,1 mm 4 m/S 754 mmHg 81%
    18:00 +13°C° 0,1 mm 3 m/S 754 mmHg 83%
    19:00 +13°C° 0 mm 3 m/S 755 mmHg 83%
    20:00 +13°C° 0 mm 3 m/S 755 mmHg 83%
    21:00 +12°C° 0 mm 3 m/S 755 mmHg 83%
    22:00 +12°C° 0 mm 3 m/S 755 mmHg 84%
    23:00 +11°C° 0 mm 3 m/S 755 mmHg 85%

    21 Oktober, Samstag

    Zeit Temperatur Niederschläge Wind Luftdruck Luftfeuchtigkeit
    00:00 +11°C° 0 mm 3 m/S 755 mmHg 85%
    01:00 +11°C° 0 mm 3 m/S 754 mmHg 84%
    02:00 +11°C° 0 mm 3 m/S 754 mmHg 83%
    03:00 +12°C° 0 mm 4 m/S 754 mmHg 81%
    04:00 +12°C° 0 mm 4 m/S 753 mmHg 82%
    05:00 +12°C° 0 mm 4 m/S 753 mmHg 82%
    06:00 +13°C° 0 mm 5 m/S 753 mmHg 82%
    07:00 +13°C° 0,2 mm 5 m/S 753 mmHg 82%
    08:00 +14°C° 0,2 mm 5 m/S 753 mmHg 82%
    09:00 +15°C° 0,2 mm 6 m/S 753 mmHg 81%
    10:00 +15°C° 0,7 mm 5 m/S 753 mmHg 82%
    11:00 +15°C° 0,7 mm 5 m/S 753 mmHg 82%
    12:00 +15°C° 0,7 mm 5 m/S 753 mmHg 83%
    13:00 +15°C° 0 mm 5 m/S 753 mmHg 78%
    14:00 +15°C° 0 mm 6 m/S 753 mmHg 73%
    15:00 +16°C° 0 mm 6 m/S 752 mmHg 67%
    16:00 +15°C° 0 mm 6 m/S 753 mmHg 68%
    17:00 +14°C° 0 mm 6 m/S 753 mmHg 68%
    18:00 +13°C° 0 mm 5 m/S 753 mmHg 68%
    19:00 +13°C° 0 mm 6 m/S 753 mmHg 67%
    20:00 +13°C° 0 mm 6 m/S 753 mmHg 66%
    21:00 +11°C° 0 mm 6 m/S 753 mmHg 65%
    22:00 +11°C° 0 mm 6 m/S 753 mmHg 66%
    23:00 +11°C° 0 mm 6 m/S 753 mmHg 66%

    22 Oktober, Sonntag

    Zeit Temperatur Niederschläge Wind Luftdruck Luftfeuchtigkeit
    00:00 +11°C° 0 mm 6 m/S 753 mmHg 67%
    01:00 +10°C° 0 mm 7 m/S 753 mmHg 68%
    02:00 +10°C° 0 mm 7 m/S 753 mmHg 69%
    03:00 +10°C° 0 mm 7 m/S 753 mmHg 70%
    04:00 +10°C° 0 mm 7 m/S 753 mmHg 71%
    05:00 +10°C° 0 mm 7 m/S 753 mmHg 72%
    06:00 +10°C° 0 mm 7 m/S 753 mmHg 73%
    07:00 +10°C° 0,2 mm 8 m/S 753 mmHg 74%
    08:00 +10°C° 0,2 mm 8 m/S 754 mmHg 74%
    09:00 +10°C° 0,2 mm 8 m/S 754 mmHg 75%
    10:00 +10°C° 0,7 mm 7 m/S 755 mmHg 76%
    11:00 +10°C° 0,7 mm 7 m/S 755 mmHg 76%
    12:00 +11°C° 0,7 mm 6 m/S 756 mmHg 77%
    13:00 +11°C° 0,2 mm 6 m/S 756 mmHg 75%
    14:00 +12°C° 0,2 mm 5 m/S 757 mmHg 72%
    15:00 +12°C° 0,2 mm 5 m/S 757 mmHg 70%
    16:00 +11°C° 0,1 mm 4 m/S 758 mmHg 71%
    17:00 +10°C° 0,1 mm 4 m/S 759 mmHg 73%
    18:00 +10°C° 0,1 mm 4 m/S 759 mmHg 74%
    19:00 +8°C° 0 mm 4 m/S 760 mmHg 75%
    20:00 +8°C° 0 mm 4 m/S 760 mmHg 76%
    21:00 +7°C° 0 mm 4 m/S 760 mmHg 77%
    22:00 +7°C° 0 mm 4 m/S 761 mmHg 77%
    23:00 +7°C° 0 mm 4 m/S 761 mmHg 78%

    23 Oktober, Montag

    Zeit Temperatur Niederschläge Wind Luftdruck Luftfeuchtigkeit
    00:00 +6°C° 0 mm 4 m/S 761 mmHg 79%
    01:00 +6°C° 0 mm 4 m/S 761 mmHg 78%
    02:00 +7°C° 0 mm 4 m/S 761 mmHg 78%
    03:00 +7°C° 0 mm 4 m/S 762 mmHg 78%
    04:00 +7°C° 0 mm 4 m/S 762 mmHg 79%
    05:00 +6°C° 0 mm 4 m/S 762 mmHg 80%
    06:00 +6°C° 0 mm 4 m/S 762 mmHg 81%
    07:00 +7°C° 0 mm 4 m/S 762 mmHg 79%
    08:00 +9°C° 0 mm 5 m/S 762 mmHg 76%
    09:00 +10°C° 0 mm 5 m/S 762 mmHg 74%
    10:00 +12°C° 0 mm 5 m/S 762 mmHg 70%
    11:00 +13°C° 0 mm 5 m/S 762 mmHg 66%
    12:00 +14°C° 0 mm 6 m/S 762 mmHg 63%
    13:00 +14°C° 0 mm 5 m/S 762 mmHg 64%
    14:00 +14°C° 0 mm 5 m/S 762 mmHg 65%
    15:00 +14°C° 0 mm 4 m/S 761 mmHg 67%
    16:00 +13°C° 0 mm 4 m/S 762 mmHg 70%
    17:00 +12°C° 0 mm 4 m/S 762 mmHg 73%
    18:00 +11°C° 0 mm 3 m/S 762 mmHg 76%
    19:00 +11°C° 0 mm 4 m/S 762 mmHg 76%
    20:00 +11°C° 0 mm 4 m/S 762 mmHg 76%
    21:00 +11°C° 0 mm 4 m/S 762 mmHg 76%
    22:00 +11°C° 0 mm 4 m/S 761 mmHg 76%
    23:00 +10°C° 0 mm 4 m/S 761 mmHg 76%
    Mehr zeigen